| time (UTC) | temp F | wind direction | speed knots | gust knots | rain 1hr in | rain 24hr in | rain mn in | humidity % | barometer mb |
| 20260906171426 | 77 | 136 | 1.7 | 5.2 | 0.00 | 0.00 | 0.00 | 78 | |
| 20260906164426 | 76 | 126 | 1.7 | 7.8 | 0.00 | 0.00 | 0.00 | 78 | |
| 20260906163426 | 75 | 119 | 2.6 | 5.2 | 0.00 | 0.00 | 0.00 | 79 | |
| 20260906160426 | 74 | 144 | 2.6 | 5.2 | 0.00 | 0.00 | 0.00 | 82 | |
| 20260906155426 | 73 | 148 | 2.6 | 7.0 | 0.00 | 0.00 | 0.00 | 83 | |
| 20260906154426 | 73 | 140 | 3.5 | 7.0 | 0.00 | 0.00 | 0.00 | 83 | |
| 20260906153426 | 73 | 132 | 2.6 | 6.1 | 0.00 | 0.00 | 0.00 | 84 | |
| 20260906152427 | 72 | 140 | 2.6 | 6.1 | 0.00 | 0.00 | 0.00 | 85 | |
| 20260906150427 | 71 | 154 | 1.7 | 5.2 | 0.00 | 0.00 | 0.00 | 87 | |
| 20260906144426 | 70 | 148 | 1.7 | 5.2 | 0.00 | 0.00 | 0.00 | 88 | |
| 20260906143426 | 70 | 158 | 1.7 | 4.3 | 0.00 | 0.00 | 0.00 | 90 | |
| 20260906142426 | 70 | 132 | 1.7 | 4.3 | 0.00 | 0.00 | 0.00 | 90 | |
| 20260906141426 | 70 | 138 | 1.7 | 4.3 | 0.00 | 0.00 | 0.00 | 90 | |
| 20260906135426 | 70 | 126 | 1.7 | 4.3 | 0.00 | 0.00 | 0.00 | 92 | |
| 20260906130459 | 68 | 126 | 0.9 | 2.6 | 0.00 | 0.00 | 0.00 | 94 | |
| 20260906130427 | 68 | 126 | 0.9 | 2.6 | 0.00 | 0.00 | 0.00 | 94 | |
| 20260906125426 | 68 | 111 | 0.9 | 2.6 | 0.00 | 0.00 | 0.00 | 94 | |
| 20260906121426 | 67 | 82 | 0.0 | 0.0 | 0.00 | 0.00 | 0.00 | 95 | |
| 20260906120517 | 67 | 82 | 0.0 | 0.0 | 0.00 | 0.00 | 0.00 | 95 | |
| 20260906120426 | 67 | 82 | 0.0 | 0.0 | 0.00 | 0.00 | 0.00 | 95 | |
| 20260906105427 | 68 | 82 | 0.0 | 0.0 | 0.00 | 0.00 | 0.00 | 93 | |
| 20260906104515 | 68 | 82 | 0.0 | 0.0 | 0.00 | 0.00 | 0.00 | 93 | |
| 20260906104428 | 68 | 82 | 0.0 | 0.0 | 0.00 | 0.00 | 0.00 | 93 | |
| 20260906103459 | 68 | 82 | 0.0 | 0.0 | 0.00 | 0.00 | 0.00 | 92 | |
| 20260906103427 | 68 | 82 | 0.0 | 0.0 | 0.00 | 0.00 | 0.00 | 92 | |
| 20260906101426 | 69 | 82 | 0.0 | 0.0 | 0.00 | 0.00 | 0.00 | 93 | |
| 20260906100426 | 69 | 82 | 0.0 | 0.0 | 0.00 | 0.00 | 0.00 | 93 | |
| 20260906094426 | 69 | 80 | 0.0 | 1.7 | 0.00 | 0.00 | 0.00 | 92 | |
| 20260906090429 | 69 | 80 | 0.0 | 0.0 | 0.00 | 0.00 | 0.00 | 91 | |
| 20260906085437 | 69 | 82 | 0.0 | 0.0 | 0.00 | 0.00 | 0.00 | 92 | |
| 20260906081426 | 69 | 84 | 0.0 | 1.7 | 0.00 | 0.00 | 0.00 | 91 | |
| 20260906080426 | 69 | 84 | 0.0 | 1.7 | 0.00 | 0.00 | 0.00 | 91 | |
| 20260906075426 | 70 | 84 | 0.0 | 0.0 | 0.00 | 0.00 | 0.00 | 91 | |
| 20260906074512 | 70 | 84 | 0.0 | 0.0 | 0.00 | 0.00 | 0.00 | 90 | |
| 20260906074426 | 70 | 84 | 0.0 | 0.0 | 0.00 | 0.00 | 0.00 | 90 | |
| 20260906070427 | 70 | 84 | 0.0 | 0.0 | 0.00 | 0.00 | 0.00 | 89 | |
| 20260906064426 | 71 | 84 | 0.0 | 1.7 | 0.00 | 0.00 | 0.00 | 89 | |
| 20260906063427 | 71 | 84 | 0.0 | 1.7 | 0.00 | 0.00 | 0.00 | 88 | |
| 20260906062428 | 71 | 80 | 0.0 | 0.0 | 0.00 | 0.00 | 0.00 | 88 | |
| 20260906061426 | 71 | 79 | 0.0 | 0.0 | 0.00 | 0.00 | 0.00 | 87 | |
| 20260906055426 | 72 | 80 | 0.0 | 0.0 | 0.00 | 0.00 | 0.00 | 86 | |
| 20260906054426 | 72 | 80 | 0.0 | 1.7 | 0.00 | 0.00 | 0.00 | 86 | |
| 20260906051426 | 72 | 136 | 0.0 | 0.0 | 0.00 | 0.00 | 0.00 | 86 | |
| 20260906050426 | 72 | 123 | 0.0 | 0.0 | 0.00 | 0.00 | 0.00 | 87 | |
| 20260906043426 | 72 | 117 | 0.0 | 0.0 | 0.00 | 0.00 | 0.00 | 86 | |
| 20260906042426 | 72 | 117 | 0.0 | 0.0 | 0.00 | 0.00 | 0.00 | 86 | |
| 20260906035426 | 72 | 117 | 0.0 | 0.0 | 0.00 | 0.00 | 0.00 | 84 | |
| 20260906033426 | 73 | 117 | 0.0 | 0.0 | 0.00 | 0.00 | 0.00 | 83 | |
| 20260906032457 | 73 | 117 | 0.0 | 0.0 | 0.00 | 0.00 | 0.00 | 82 | |
| 20260906032426 | 73 | 117 | 0.0 | 0.0 | 0.00 | 0.00 | 0.00 | 82 | |
| 20260906031426 | 74 | 117 | 0.0 | 0.0 | 0.00 | 0.00 | 0.00 | 82 | |
| 20260906030426 | 74 | 117 | 0.0 | 0.0 | 0.00 | 0.00 | 0.00 | 80 | |
| 20260906025426 | 75 | 117 | 0.0 | 0.0 | 0.00 | 0.00 | 0.00 | 79 | |
| 20260906023426 | 76 | 154 | 0.0 | 1.7 | 0.00 | 0.00 | 0.00 | 77 | |
| 20260906022426 | 76 | 159 | 0.0 | 2.6 | 0.00 | 0.00 | 0.00 | 76 | |
| 20260906021427 | 76 | 175 | 0.9 | 2.6 | 0.00 | 0.00 | 0.00 | 76 | |
| 20260906020427 | 76 | 164 | 0.9 | 3.5 | 0.00 | 0.00 | 0.00 | 76 | |
| 20260906015426 | 76 | 152 | 0.0 | 2.6 | 0.00 | 0.00 | 0.00 | 76 | |
| 20260906014426 | 77 | 139 | 0.9 | 4.3 | 0.00 | 0.00 | 0.00 | 75 | |
| 20260906013800 | 77 | 145 | 0.9 | 4.3 | 0.00 | 0.00 | 0.00 | 75 | |
| 20260906013715 | 77 | 145 | 0.9 | 4.3 | 0.00 | 0.00 | 0.00 | 75 | |
| 20260906013458 | 77 | 145 | 0.9 | 4.3 | 0.00 | 0.00 | 0.00 | 75 | |
| 20260906013448 | 77 | 145 | 0.9 | 4.3 | 0.00 | 0.00 | 0.00 | 75 | |
| 20260906013426 | 77 | 145 | 0.9 | 4.3 | 0.00 | 0.00 | 0.00 | 75 | |
| 20260906011426 | 78 | 141 | 0.0 | 1.7 | 0.00 | 0.00 | 0.00 | 73 | |
| 20260906005426 | 78 | 81 | 0.0 | 2.6 | 0.00 | 0.00 | 0.00 | 71 | |
| 20260906004517 | 79 | 82 | 0.9 | 4.3 | 0.00 | 0.00 | 0.00 | 70 | |
| 20260906004429 | 79 | 82 | 0.9 | 4.3 | 0.00 | 0.00 | 0.00 | 70 | |
| 20260905234427 | 82 | 81 | 1.7 | 9.6 | 0.00 | 0.00 | 0.00 | 66 | |
| 20260905233426 | 82 | 92 | 1.7 | 9.6 | 0.00 | 0.00 | 0.00 | 66 | |
| 20260905232427 | 83 | 81 | 1.7 | 7.8 | 0.00 | 0.00 | 0.00 | 61 | |
| 20260905225426 | 84 | 88 | 1.7 | 7.0 | 0.00 | 0.00 | 0.00 | 60 | |
| 20260905223426 | 84 | 83 | 2.6 | 6.1 | 0.00 | 0.00 | 0.00 | 62 | |
| 20260905222426 | 84 | 81 | 2.6 | 6.1 | 0.00 | 0.00 | 0.00 | 62 | |
| 20260905214427 | 84 | 80 | 1.7 | 7.8 | 0.00 | 0.00 | 0.00 | 64 | |
| 20260905212426 | 84 | 76 | 2.6 | 7.8 | 0.00 | 0.00 | 0.00 | 63 | |
| 20260905211428 | 84 | 71 | 1.7 | 7.0 | 0.00 | 0.00 | 0.00 | 64 | |
| 20260905210426 | 84 | 64 | 2.6 | 7.0 | 0.00 | 0.00 | 0.00 | 61 | |
| 20260905203427 | 84 | 62 | 0.9 | 4.3 | 0.00 | 0.00 | 0.00 | 65 | |
| 20260905195426 | 82 | 63 | 1.7 | 4.3 | 0.00 | 0.00 | 0.00 | 68 | |
| 20260905194427 | 82 | 92 | 0.9 | 7.0 | 0.00 | 0.00 | 0.00 | 68 | |
| 20260905191426 | 82 | 351 | 0.9 | 4.3 | 0.00 | 0.00 | 0.00 | 70 | |
| 20260905190426 | 81 | 97 | 0.9 | 3.5 | 0.00 | 0.00 | 0.00 | 70 | |
| 20260905185432 | 81 | 33 | 0.9 | 3.5 | 0.00 | 0.00 | 0.00 | 71 | |
| 20260905184427 | 80 | 173 | 0.9 | 3.5 | 0.00 | 0.00 | 0.00 | 73 | |
| 20260905181426 | 78 | 165 | 0.9 | 3.5 | 0.00 | 0.00 | 0.00 | 77 | |
| 20260905180428 | 77 | 181 | 0.9 | 4.3 | 0.00 | 0.00 | 0.00 | 78 | |
| 20260905175426 | 77 | 151 | 1.7 | 4.3 | 0.00 | 0.00 | 0.00 | 79 |